Precipitable_Water
0.28 0.28 0.30 0.30 0.30 0.30 0.30 0.32 0.32 0.34 0.36 0.36 0.36 0.36 0.36 0.36 0.36 0.36 0.36 0.36 0.36 0.38 0.40 0.40 0.42 0.42 0.42 0.42 0.42 0.44 0.44 0.44 0.46 0.46 0.46 0.44 0.44 0.42 0.40 0.38 0.38 0.44 0.52 0.60 0.66 0.71 0.75 0.79 0.81 0.81 0.81 0.87 0.91 0.99 1.03 1.07 1.07 1.07 1.07 1.07 1.09 1.09 1.09 1.09 1.07 1.05 1.01 0.97 0.97
0.28 0.28 0.28 0.28 0.28 0.28 0.28 0.28 0.30 0.30 0.32 0.32 0.32 0.34 0.34 0.34 0.34 0.34 0.34 0.36 0.36 0.36 0.38 0.40 0.40 0.42 0.42 0.44 0.44 0.44 0.46 0.48 0.48 0.48 0.46 0.44 0.42 0.42 0.40 0.40 0.38 0.38 0.44 0.50 0.60 0.66 0.71 0.73 0.73 0.75 0.75 0.79 0.85 0.89 0.97 1.07 1.09 1.07 1.07 1.05 1.07 1.07 1.09 1.09 1.07 1.07 1.05 1.01 0.99
0.28 0.28 0.28 0.28 0.26 0.26 0.26 0.26 0.26 0.28 0.28 0.28 0.30 0.30 0.30 0.30 0.32 0.32 0.34 0.36 0.36 0.38 0.38 0.38 0.40 0.40 0.42 0.42 0.44 0.46 0.48 0.48 0.48 0.48 0.48 0.46 0.44 0.42 0.40 0.38 0.36 0.38 0.40 0.46 0.54 0.62 0.68 0.71 0.71 0.71 0.73 0.73 0.77 0.83 0.91 1.05 1.07 1.07 1.07 1.05 1.07 1.07 1.07 1.07 1.07 1.07 1.05 1.03 0.99
0.26 0.28 0.26 0.26 0.24 0.24 0.24 0.24 0.24 0.26 0.26 0.26 0.28 0.28 0.28 0.28 0.28 0.30 0.32 0.34 0.34 0.36 0.38 0.38 0.38 0.40 0.40 0.42 0.42 0.44 0.46 0.48 0.48 0.48 0.48 0.48 0.46 0.44 0.42 0.40 0.38 0.36 0.36 0.42 0.50 0.58 0.64 0.66 0.69 0.69 0.69 0.71 0.73 0.77 0.81 0.91 1.01 1.05 1.05 1.03 1.05 1.07 1.07 1.05 1.07 1.07 1.05 1.03 0.99
0.26 0.26 0.26 0.24 0.24 0.24 0.24 0.24 0.24 0.24 0.26 0.26 0.26 0.26 0.26 0.26 0.28 0.28 0.28 0.30 0.30 0.32 0.34 0.36 0.38 0.38 0.40 0.38 0.38 0.42 0.44 0.44 0.46 0.48 0.48 0.48 0.46 0.44 0.42 0.42 0.38 0.36 0.36 0.38 0.44 0.54 0.60 0.62 0.66 0.68 0.69 0.69 0.69 0.73 0.77 0.83 0.93 0.99 1.01 0.99 1.01 1.05 1.05 1.07 1.07 1.07 1.05 1.03 0.99
0.26 0.26 0.24 0.24 0.24 0.22 0.24 0.24 0.24 0.24 0.26 0.26 0.26 0.24 0.24 0.26 0.26 0.26 0.26 0.26 0.26 0.28 0.28 0.32 0.34 0.34 0.34 0.34 0.36 0.40 0.42 0.44 0.46 0.46 0.48 0.50 0.46 0.46 0.44 0.42 0.42 0.40 0.38 0.34 0.38 0.42 0.48 0.58 0.62 0.66 0.68 0.68 0.69 0.69 0.73 0.77 0.83 0.91 0.95 0.93 0.97 0.99 1.03 1.05 1.05 1.05 1.03 1.01 0.99
0.24 0.24 0.24 0.22 0.22 0.22 0.22 0.22 0.24 0.26 0.26 0.26 0.24 0.24 0.24 0.24 0.24 0.24 0.24 0.24 0.26 0.26 0.28 0.30 0.30 0.30 0.32 0.34 0.34 0.36 0.40 0.44 0.44 0.46 0.48 0.48 0.48 0.46 0.44 0.44 0.42 0.42 0.40 0.38 0.36 0.38 0.42 0.52 0.58 0.62 0.64 0.68 0.68 0.68 0.69 0.73 0.77 0.79 0.81 0.87 0.91 0.95 0.97 0.99 1.03 1.03 1.01 0.99 0.97
0.26 0.24 0.24 0.22 0.22 0.20 0.22 0.22 0.24 0.26 0.26 0.26 0.26 0.24 0.24 0.24 0.24 0.24 0.24 0.26 0.26 0.26 0.26 0.28 0.30 0.30 0.30 0.32 0.32 0.34 0.36 0.42 0.44 0.46 0.46 0.48 0.48 0.46 0.46 0.44 0.44 0.42 0.42 0.40 0.36 0.36 0.40 0.46 0.54 0.58 0.62 0.64 0.66 0.66 0.68 0.69 0.71 0.73 0.77 0.83 0.87 0.89 0.91 0.93 0.97 0.99 0.99 0.97 0.95
0.26 0.24 0.24 0.22 0.22 0.22 0.22 0.22 0.24 0.24 0.26 0.26 0.26 0.26 0.24 0.24 0.24 0.26 0.26 0.26 0.26 0.26 0.26 0.28 0.28 0.28 0.30 0.30 0.30 0.32 0.34 0.40 0.42 0.44 0.46 0.46 0.46 0.46 0.46 0.46 0.44 0.42 0.42 0.42 0.42 0.40 0.38 0.42 0.50 0.54 0.58 0.62 0.64 0.66 0.66 0.68 0.69 0.69 0.71 0.75 0.81 0.83 0.85 0.87 0.89 0.91 0.93 0.89 0.91
0.24 0.24 0.22 0.22 0.22 0.22 0.22 0.22 0.24 0.24 0.24 0.24 0.24 0.24 0.24 0.26 0.26 0.26 0.26 0.26 0.26 0.26 0.26 0.26 0.26 0.28 0.28 0.28 0.28 0.28 0.32 0.36 0.38 0.42 0.44 0.46 0.46 0.46 0.46 0.46 0.44 0.44 0.42 0.42 0.42 0.40 0.38 0.40 0.46 0.50 0.56 0.60 0.62 0.64 0.66 0.66 0.66 0.66 0.68 0.71 0.75 0.77 0.81 0.81 0.83 0.85 0.85 0.85 0.87
0.22 0.22 0.22 0.22 0.22 0.24 0.24 0.24 0.24 0.24 0.24 0.24 0.24 0.24 0.24 0.24 0.26 0.26 0.26 0.26 0.24 0.24 0.24 0.24 0.24 0.26 0.26 0.26 0.26 0.28 0.28 0.30 0.34 0.38 0.42 0.44 0.44 0.46 0.46 0.46 0.46 0.44 0.44 0.44 0.42 0.42 0.40 0.40 0.42 0.48 0.52 0.56 0.60 0.62 0.64 0.64 0.64 0.64 0.66 0.68 0.71 0.73 0.75 0.77 0.79 0.79 0.81 0.79 0.81
0.22 0.22 0.22 0.22 0.22 0.24 0.24 0.24 0.24 0.24 0.24 0.24 0.24 0.24 0.24 0.24 0.26 0.26 0.26 0.24 0.24 0.24 0.24 0.24 0.24 0.24 0.24 0.26 0.26 0.26 0.28 0.28 0.32 0.36 0.38 0.40 0.42 0.44 0.46 0.48 0.46 0.46 0.44 0.44 0.44 0.44 0.42 0.40 0.42 0.46 0.50 0.54 0.58 0.60 0.62 0.62 0.62 0.62 0.64 0.66 0.68 0.69 0.71 0.73 0.75 0.75 0.77 0.77 0.79
0.20 0.22 0.22 0.22 0.22 0.22 0.22 0.24 0.24 0.24 0.24 0.24 0.24 0.24 0.24 0.24 0.26 0.26 0.26 0.24 0.24 0.24 0.24 0.24 0.24 0.24 0.24 0.24 0.26 0.26 0.26 0.28 0.30 0.32 0.34 0.36 0.40 0.42 0.46 0.48 0.48 0.48 0.46 0.46 0.46 0.44 0.44 0.42 0.42 0.44 0.48 0.52 0.56 0.58 0.60 0.60 0.60 0.60 0.62 0.64 0.66 0.66 0.68 0.69 0.71 0.73 0.75 0.75 0.75
0.22 0.22 0.22 0.22 0.22 0.22 0.22 0.22 0.24 0.24 0.24 0.24 0.24 0.24 0.24 0.26 0.26 0.26 0.26 0.26 0.26 0.24 0.24 0.24 0.24 0.24 0.24 0.24 0.26 0.26 0.26 0.26 0.28 0.30 0.32 0.34 0.36 0.40 0.44 0.46 0.48 0.48 0.48 0.48 0.48 0.46 0.44 0.44 0.42 0.44 0.46 0.50 0.54 0.58 0.60 0.62 0.60 0.60 0.60 0.62 0.64 0.64 0.66 0.68 0.69 0.71 0.71 0.73 0.73
0.22 0.22 0.20 0.20 0.20 0.22 0.22 0.22 0.22 0.24 0.24 0.24 0.24 0.24 0.24 0.26 0.26 0.26 0.28 0.26 0.26 0.26 0.26 0.24 0.24 0.24 0.24 0.24 0.24 0.26 0.26 0.26 0.26 0.28 0.30 0.32 0.34 0.38 0.40 0.44 0.48 0.50 0.50 0.50 0.50 0.48 0.46 0.46 0.44 0.44 0.46 0.50 0.54 0.58 0.60 0.62 0.62 0.60 0.60 0.62 0.62 0.64 0.66 0.66 0.68 0.69 0.71 0.71 0.71
0.22 0.22 0.22 0.20 0.22 0.22 0.22 0.22 0.22 0.24 0.24 0.24 0.24 0.24 0.26 0.26 0.26 0.28 0.28 0.28 0.28 0.26 0.26 0.24 0.24 0.24 0.24 0.24 0.24 0.26 0.26 0.26 0.26 0.28 0.30 0.32 0.34 0.36 0.38 0.42 0.46 0.50 0.52 0.52 0.50 0.50 0.48 0.48 0.46 0.44 0.44 0.48 0.52 0.56 0.58 0.62 0.62 0.62 0.62 0.62 0.62 0.64 0.66 0.66 0.68 0.69 0.69 0.69 0.71
0.22 0.22 0.22 0.22 0.22 0.22 0.22 0.24 0.24 0.24 0.24 0.24 0.24 0.24 0.26 0.26 0.26 0.28 0.28 0.28 0.28 0.28 0.26 0.26 0.24 0.24 0.24 0.24 0.24 0.26 0.26 0.26 0.26 0.26 0.28 0.32 0.32 0.36 0.38 0.40 0.46 0.50 0.52 0.52 0.52 0.50 0.50 0.48 0.48 0.46 0.44 0.46 0.50 0.56 0.58 0.62 0.62 0.62 0.62 0.62 0.62 0.64 0.66 0.68 0.69 0.69 0.69 0.69 0.69
0.24 0.22 0.22 0.22 0.24 0.24 0.24 0.24 0.24 0.24 0.24 0.24 0.24 0.26 0.26 0.26 0.26 0.28 0.28 0.28 0.28 0.28 0.26 0.26 0.26 0.26 0.26 0.24 0.26 0.26 0.26 0.26 0.26 0.26 0.28 0.32 0.34 0.36 0.38 0.40 0.44 0.50 0.52 0.54 0.52 0.52 0.50 0.50 0.48 0.46 0.44 0.42 0.46 0.52 0.58 0.60 0.62 0.62 0.62 0.62 0.62 0.64 0.66 0.68 0.69 0.69 0.68 0.68 0.68
0.24 0.24 0.24 0.24 0.24 0.26 0.26 0.26 0.26 0.26 0.26 0.26 0.26 0.26 0.26 0.26 0.26 0.28 0.28 0.28 0.28 0.28 0.28 0.26 0.26 0.26 0.26 0.26 0.26 0.26 0.26 0.26 0.26 0.28 0.28 0.30 0.34 0.38 0.40 0.42 0.44 0.48 0.52 0.54 0.54 0.54 0.52 0.50 0.48 0.46 0.44 0.42 0.42 0.46 0.52 0.60 0.62 0.62 0.62 0.62 0.64 0.64 0.66 0.68 0.68 0.68 0.68 0.68 0.68
0.26 0.26 0.26 0.26 0.26 0.28 0.28 0.28 0.28 0.28 0.26 0.26 0.26 0.26 0.26 0.26 0.26 0.28 0.28 0.28 0.28 0.28 0.28 0.28 0.28 0.26 0.26 0.26 0.26 0.26 0.26 0.26 0.26 0.28 0.28 0.30 0.36 0.38 0.40 0.42 0.44 0.48 0.50 0.52 0.54 0.54 0.52 0.52 0.50 0.48 0.46 0.44 0.42 0.44 0.48 0.58 0.60 0.62 0.62 0.64 0.64 0.64 0.66 0.66 0.68 0.68 0.68 0.68 0.68
0.26 0.26 0.28 0.28 0.28 0.30 0.30 0.30 0.28 0.28 0.28 0.28 0.28 0.28 0.28 0.28 0.28 0.28 0.28 0.28 0.30 0.30 0.30 0.28 0.28 0.28 0.26 0.26 0.26 0.26 0.26 0.26 0.28 0.28 0.30 0.32 0.36 0.38 0.42 0.44 0.46 0.48 0.50 0.52 0.54 0.54 0.54 0.52 0.50 0.48 0.46 0.44 0.42 0.44 0.46 0.54 0.58 0.60 0.62 0.64 0.64 0.64 0.66 0.66 0.66 0.68 0.68 0.68 0.68
0.28 0.28 0.30 0.30 0.30 0.30 0.30 0.30 0.30 0.30 0.28 0.28 0.28 0.28 0.28 0.28 0.28 0.28 0.30 0.30 0.30 0.30 0.30 0.28 0.28 0.28 0.28 0.26 0.26 0.26 0.26 0.26 0.28 0.28 0.30 0.32 0.36 0.40 0.42 0.44 0.46 0.48 0.50 0.52 0.52 0.54 0.54 0.54 0.52 0.48 0.46 0.44 0.42 0.44 0.46 0.50 0.54 0.58 0.62 0.62 0.64 0.64 0.64 0.66 0.66 0.68 0.68 0.66 0.68
0.28 0.30 0.30 0.32 0.32 0.32 0.32 0.30 0.30 0.30 0.30 0.30 0.28 0.28 0.28 0.28 0.30 0.30 0.30 0.30 0.30 0.30 0.30 0.30 0.28 0.28 0.28 0.28 0.26 0.26 0.26 0.26 0.28 0.30 0.32 0.34 0.38 0.40 0.42 0.46 0.46 0.48 0.48 0.50 0.52 0.54 0.56 0.56 0.52 0.50 0.46 0.44 0.42 0.44 0.46 0.50 0.54 0.56 0.60 0.62 0.62 0.62 0.64 0.66 0.66 0.66 0.66 0.66 0.66
0.30 0.32 0.32 0.32 0.32 0.32 0.32 0.30 0.30 0.30 0.30 0.30 0.30 0.30 0.30 0.30 0.30 0.30 0.30 0.30 0.30 0.30 0.30 0.30 0.30 0.28 0.28 0.28 0.26 0.26 0.26 0.28 0.28 0.30 0.32 0.36 0.38 0.42 0.44 0.46 0.48 0.48 0.50 0.52 0.54 0.54 0.56 0.56 0.54 0.50 0.46 0.44 0.44 0.44 0.46 0.50 0.54 0.56 0.58 0.60 0.60 0.62 0.64 0.64 0.64 0.64 0.64 0.64 0.66
0.32 0.32 0.32 0.34 0.32 0.32 0.32 0.30 0.30 0.30 0.30 0.30 0.30 0.30 0.30 0.30 0.30 0.30 0.30 0.30 0.30 0.30 0.30 0.30 0.28 0.28 0.28 0.28 0.26 0.26 0.28 0.28 0.30 0.32 0.34 0.36 0.40 0.42 0.44 0.46 0.48 0.48 0.50 0.52 0.54 0.56 0.56 0.56 0.56 0.54 0.50 0.44 0.44 0.44 0.46 0.50 0.54 0.56 0.58 0.60 0.60 0.62 0.62 0.62 0.62 0.64 0.64 0.64 0.64
0.32 0.32 0.34 0.32 0.32 0.32 0.30 0.30 0.30 0.30 0.30 0.30 0.30 0.30 0.30 0.30 0.30 0.30 0.30 0.30 0.30 0.30 0.30 0.28 0.28 0.28 0.28 0.26 0.26 0.26 0.28 0.30 0.32 0.34 0.36 0.38 0.40 0.42 0.44 0.46 0.48 0.50 0.50 0.52 0.54 0.56 0.56 0.58 0.56 0.54 0.50 0.46 0.44 0.44 0.46 0.50 0.54 0.56 0.58 0.60 0.60 0.60 0.60 0.60 0.62 0.62 0.62 0.64 0.64
0.32 0.32 0.32 0.32 0.32 0.30 0.30 0.30 0.28 0.28 0.28 0.28 0.28 0.28 0.30 0.30 0.30 0.30 0.30 0.30 0.28 0.28 0.28 0.28 0.28 0.26 0.26 0.26 0.26 0.26 0.28 0.32 0.34 0.36 0.38 0.42 0.42 0.44 0.46 0.48 0.48 0.50 0.52 0.52 0.54 0.56 0.56 0.56 0.56 0.52 0.50 0.48 0.46 0.46 0.48 0.52 0.54 0.58 0.60 0.60 0.60 0.60 0.60 0.58 0.60 0.60 0.62 0.62 0.62
0.32 0.32 0.32 0.32 0.30 0.30 0.28 0.28 0.28 0.28 0.28 0.28 0.28 0.28 0.30 0.30 0.30 0.30 0.30 0.30 0.28 0.28 0.28 0.26 0.26 0.26 0.26 0.26 0.26 0.28 0.30 0.34 0.38 0.40 0.42 0.44 0.46 0.46 0.48 0.48 0.48 0.50 0.52 0.54 0.56 0.56 0.56 0.56 0.54 0.52 0.50 0.48 0.48 0.48 0.50 0.52 0.56 0.58 0.58 0.60 0.58 0.58 0.58 0.58 0.58 0.58 0.60 0.60 0.60
0.32 0.32 0.30 0.30 0.30 0.28 0.28 0.28 0.28 0.28 0.28 0.28 0.28 0.28 0.30 0.30 0.30 0.28 0.28 0.28 0.28 0.26 0.26 0.26 0.26 0.26 0.26 0.26 0.28 0.30 0.32 0.38 0.40 0.42 0.44 0.46 0.48 0.48 0.48 0.50 0.50 0.52 0.54 0.56 0.58 0.58 0.56 0.54 0.52 0.52 0.50 0.50 0.48 0.48 0.50 0.54 0.56 0.58 0.58 0.58 0.58 0.58 0.56 0.56 0.56 0.58 0.58 0.58 0.58
0.30 0.30 0.30 0.30 0.28 0.28 0.28 0.26 0.28 0.28 0.28 0.28 0.28 0.28 0.28 0.28 0.28 0.28 0.28 0.28 0.26 0.26 0.26 0.26 0.26 0.26 0.26 0.28 0.30 0.32 0.34 0.36 0.42 0.46 0.46 0.48 0.48 0.48 0.50 0.50 0.52 0.54 0.56 0.56 0.58 0.56 0.54 0.52 0.52 0.52 0.50 0.50 0.48 0.48 0.50 0.52 0.56 0.56 0.58 0.56 0.56 0.56 0.54 0.54 0.56 0.56 0.56 0.58 0.58
0.28 0.28 0.28 0.28 0.28 0.28 0.26 0.26 0.28 0.28 0.28 0.28 0.28 0.28 0.28 0.28 0.28 0.28 0.26 0.26 0.26 0.24 0.24 0.26 0.26 0.26 0.28 0.30 0.32 0.34 0.36 0.40 0.44 0.46 0.48 0.48 0.48 0.50 0.50 0.52 0.54 0.54 0.56 0.58 0.56 0.54 0.52 0.52 0.52 0.52 0.50 0.48 0.48 0.50 0.52 0.54 0.56 0.56 0.56 0.56 0.54 0.54 0.54 0.54 0.56 0.56 0.56 0.56 0.56
0.28 0.28 0.28 0.28 0.26 0.26 0.26 0.28 0.28 0.28 0.28 0.28 0.28 0.28 0.28 0.26 0.26 0.26 0.26 0.26 0.26 0.24 0.24 0.24 0.26 0.28 0.30 0.32 0.34 0.36 0.40 0.42 0.44 0.48 0.50 0.50 0.50 0.50 0.52 0.52 0.54 0.54 0.56 0.56 0.54 0.52 0.52 0.52 0.52 0.50 0.50 0.50 0.50 0.52 0.54 0.56 0.56 0.56 0.56 0.54 0.54 0.54 0.54 0.56 0.56 0.56 0.56 0.56 0.56
0.28 0.28 0.28 0.26 0.26 0.26 0.28 0.28 0.28 0.28 0.28 0.28 0.28 0.28 0.26 0.26 0.26 0.26 0.26 0.26 0.24 0.24 0.24 0.26 0.28 0.30 0.32 0.34 0.36 0.40 0.42 0.44 0.46 0.48 0.50 0.50 0.50 0.52 0.52 0.52 0.54 0.54 0.54 0.54 0.54 0.54 0.54 0.52 0.52 0.50 0.50 0.52 0.52 0.54 0.54 0.56 0.56 0.54 0.54 0.52 0.52 0.54 0.56 0.56 0.56 0.56 0.56 0.58 0.58
0.28 0.28 0.28 0.26 0.26 0.28 0.28 0.28 0.28 0.28 0.28 0.28 0.28 0.26 0.26 0.26 0.26 0.26 0.24 0.24 0.24 0.26 0.26 0.28 0.30 0.32 0.34 0.38 0.40 0.42 0.44 0.46 0.48 0.48 0.50 0.52 0.52 0.52 0.52 0.52 0.52 0.54 0.54 0.56 0.56 0.54 0.54 0.54 0.52 0.52 0.52 0.52 0.54 0.54 0.54 0.54 0.54 0.54 0.52 0.52 0.52 0.54 0.54 0.56 0.56 0.58 0.58 0.58 0.58
0.28 0.28 0.28 0.28 0.28 0.28 0.28 0.28 0.28 0.28 0.28 0.26 0.26 0.26 0.26 0.26 0.26 0.24 0.24 0.24 0.24 0.26 0.28 0.30 0.32 0.36 0.38 0.42 0.44 0.46 0.46 0.48 0.48 0.50 0.50 0.52 0.52 0.52 0.50 0.52 0.52 0.54 0.54 0.56 0.56 0.54 0.54 0.54 0.54 0.52 0.54 0.54 0.54 0.54 0.54 0.54 0.52 0.52 0.52 0.52 0.52 0.54 0.54 0.56 0.56 0.58 0.58 0.58 0.58
0.28 0.28 0.28 0.28 0.28 0.28 0.28 0.28 0.28 0.28 0.26 0.26 0.26 0.26 0.24 0.24 0.24 0.24 0.24 0.26 0.26 0.28 0.30 0.32 0.36 0.38 0.40 0.44 0.46 0.46 0.48 0.48 0.48 0.50 0.50 0.52 0.52 0.50 0.50 0.52 0.52 0.54 0.54 0.56 0.54 0.54 0.54 0.54 0.54 0.54 0.54 0.54 0.54 0.54 0.52 0.52 0.52 0.52 0.52 0.52 0.52 0.52 0.54 0.54 0.56 0.56 0.58 0.58 0.58
0.28 0.28 0.28 0.28 0.28 0.28 0.28 0.28 0.26 0.26 0.26 0.24 0.24 0.24 0.24 0.24 0.24 0.24 0.24 0.26 0.26 0.28 0.30 0.34 0.38 0.40 0.42 0.44 0.46 0.48 0.48 0.50 0.50 0.50 0.52 0.52 0.52 0.50 0.50 0.52 0.52 0.54 0.54 0.54 0.54 0.54 0.54 0.54 0.54 0.54 0.54 0.54 0.52 0.52 0.52 0.52 0.52 0.52 0.52 0.52 0.52 0.52 0.54 0.54 0.56 0.56 0.56 0.56 0.56
0.28 0.28 0.28 0.28 0.28 0.28 0.26 0.26 0.26 0.24 0.24 0.24 0.24 0.24 0.24 0.24 0.24 0.24 0.26 0.26 0.28 0.30 0.32 0.38 0.40 0.42 0.44 0.46 0.48 0.48 0.50 0.50 0.50 0.52 0.52 0.52 0.52 0.50 0.50 0.52 0.52 0.54 0.54 0.54 0.54 0.54 0.54 0.54 0.54 0.54 0.54 0.52 0.52 0.52 0.52 0.50 0.50 0.50 0.50 0.52 0.52 0.52 0.54 0.54 0.56 0.56 0.56 0.56 0.56
0.28 0.28 0.28 0.28 0.26 0.26 0.26 0.24 0.24 0.24 0.24 0.24 0.24 0.24 0.24 0.24 0.24 0.26 0.26 0.28 0.30 0.32 0.34 0.38 0.42 0.44 0.46 0.48 0.48 0.48 0.50 0.50 0.52 0.52 0.52 0.52 0.52 0.52 0.52 0.52 0.52 0.52 0.54 0.54 0.54 0.54 0.54 0.54 0.54 0.54 0.54 0.52 0.52 0.52 0.52 0.50 0.50 0.50 0.50 0.50 0.50 0.52 0.52 0.54 0.54 0.54 0.54 0.54 0.54
0.28 0.28 0.26 0.26 0.26 0.24 0.24 0.24 0.24 0.24 0.24 0.24 0.24 0.24 0.24 0.24 0.26 0.26 0.28 0.30 0.32 0.36 0.38 0.40 0.44 0.46 0.46 0.48 0.48 0.48 0.50 0.50 0.52 0.52 0.54 0.52 0.52 0.52 0.52 0.52 0.50 0.52 0.52 0.54 0.54 0.54 0.54 0.54 0.54 0.52 0.52 0.52 0.52 0.52 0.52 0.50 0.50 0.50 0.50 0.50 0.50 0.50 0.52 0.52 0.52 0.52 0.52 0.52 0.52
0.26 0.26 0.26 0.24 0.24 0.24 0.24 0.24 0.24 0.24 0.24 0.24 0.24 0.26 0.26 0.26 0.28 0.28 0.30 0.34 0.36 0.38 0.40 0.42 0.44 0.46 0.48 0.48 0.48 0.48 0.48 0.50 0.52 0.52 0.54 0.54 0.52 0.52 0.52 0.52 0.50 0.50 0.52 0.52 0.52 0.52 0.52 0.52 0.52 0.52 0.52 0.52 0.52 0.52 0.52 0.50 0.50 0.48 0.48 0.48 0.48 0.48 0.50 0.50 0.50 0.50 0.48 0.48 0.48
Wind_Speed
39 39 39 39 39 39 39 39 40 40 40 40 41 41 42 42 43 43 44 44 44 45 45 45 46 46 46 46 46 46 46 46 46 46 47 47 48 48 48 48 49 50 51 52 52 52 51 51 51 51 51 52 53 53 53 53 52 51 52 53 53 54 54 54 54 53 53 53 52
40 40 39 39 39 39 40 40 40 40 40 40 41 41 42 42 43 43 44 44 45 45 45 46 46 47 47 47 48 47 47 47 47 48 48 48 49 49 49 49 49 50 51 52 53 52 52 51 51 51 51 52 52 53 54 53 52 52 52 53 54 54 54 54 54 53 53 53 53
40 40 40 40 40 40 40 40 40 41 41 41 41 41 42 42 43 43 44 44 45 45 46 46 47 47 48 48 49 49 49 49 49 49 49 49 50 50 50 50 50 51 51 52 53 53 53 52 52 51 51 51 52 52 53 53 52 52 53 53 53 54 54 55 54 53 53 53 53
40 40 40 40 40 41 41 41 41 41 42 42 42 42 42 42 43 43 44 44 45 45 46 46 47 47 48 49 49 50 50 50 50 50 50 51 51 51 52 51 51 52 52 53 53 54 54 53 53 52 52 52 52 52 52 53 53 53 53 53 53 53 54 54 54 54 53 53 53
40 40 41 41 41 42 42 42 42 42 42 42 42 42 43 43 43 43 43 44 44 45 46 46 47 48 48 49 50 50 51 51 51 51 51 52 52 52 53 53 52 52 53 53 54 54 55 54 54 53 52 52 52 52 52 53 53 54 54 53 53 53 53 54 54 54 53 53 53
41 41 41 42 42 43 43 43 43 43 43 43 43 43 43 43 43 43 44 44 45 45 46 46 47 47 48 49 50 50 51 51 51 51 52 52 53 53 53 53 53 53 53 53 54 55 55 55 54 54 53 53 53 53 53 53 53 54 54 54 54 53 53 53 53 53 53 52 52
42 42 43 43 43 44 44 44 44 44 44 44 44 44 44 44 44 45 45 45 46 46 46 46 47 47 48 49 49 50 51 51 51 52 52 52 53 54 54 54 54 54 53 53 54 55 55 55 55 54 54 53 53 53 53 53 53 54 54 54 54 54 54 54 53 53 52 52 52
43 43 44 44 44 45 45 45 45 45 45 45 45 45 46 46 46 46 46 46 46 46 46 47 47 48 48 49 50 50 51 52 52 53 53 53 54 54 55 55 55 54 54 54 54 55 55 55 55 55 54 54 53 53 53 53 53 53 54 54 54 54 54 54 54 53 53 52 51
44 44 44 45 45 45 45 46 46 46 46 46 47 47 47 47 47 47 47 47 47 47 47 48 48 49 49 50 51 51 52 52 53 54 54 54 54 55 55 55 55 55 54 54 54 55 56 56 56 55 55 54 54 53 53 53 53 53 54 54 54 54 54 55 55 54 53 52 52
45 45 45 45 45 46 46 46 46 46 47 47 47 47 47 47 47 47 47 47 48 48 48 49 49 50 50 51 51 52 52 53 54 54 55 55 55 56 56 56 56 56 55 55 55 56 56 57 56 56 55 55 54 54 54 53 53 53 53 53 54 54 54 55 55 54 54 53 53
46 46 46 46 46 46 46 46 47 47 47 47 48 48 48 48 48 48 48 49 49 50 50 51 51 51 51 52 52 53 53 53 54 55 55 56 56 57 57 57 57 57 57 56 56 56 57 57 57 57 56 55 54 54 54 54 54 54 53 53 54 54 55 55 55 54 54 53 53
47 47 47 47 47 47 47 48 48 48 48 48 49 49 49 49 50 50 50 50 51 52 52 52 52 52 53 53 53 53 54 55 55 56 57 57 57 58 58 58 58 58 58 57 57 57 57 58 58 57 57 56 54 54 54 54 54 54 54 54 54 54 55 55 55 55 54 54 53
49 49 49 49 49 49 49 49 49 49 50 50 50 50 51 51 51 51 52 52 53 53 53 54 54 54 54 54 54 55 55 56 56 57 58 58 59 59 59 59 59 59 58 58 58 58 58 58 59 58 57 56 55 54 54 54 55 55 55 54 54 54 55 55 55 55 54 54 53
50 50 50 50 50 50 50 50 50 50 51 51 51 52 52 52 52 53 53 53 54 54 55 55 55 55 55 55 56 56 56 57 57 58 59 59 60 60 60 60 60 59 59 59 59 58 59 59 59 59 58 57 56 54 54 54 55 56 56 55 55 55 55 55 55 55 54 53 53
50 50 51 51 51 51 51 51 51 51 51 52 52 52 52 53 53 53 53 53 54 54 55 55 55 56 56 56 56 56 57 57 57 58 58 59 60 60 60 60 60 59 59 59 58 58 58 58 59 58 58 58 56 55 54 54 55 56 56 56 56 55 56 56 55 55 54 53 53
51 51 51 51 51 51 51 51 51 51 51 52 52 52 52 52 53 53 53 53 54 54 54 54 55 55 55 56 56 56 56 56 56 56 57 57 58 58 59 59 59 58 58 58 57 57 57 57 57 58 58 58 57 56 55 55 55 56 56 56 56 56 56 56 55 54 53 53 53
52 52 52 52 52 51 51 51 51 51 51 51 51 51 51 52 52 52 52 52 53 53 53 54 54 54 54 54 54 54 54 54 54 54 55 55 55 56 56 57 57 57 56 56 56 56 56 56 56 56 57 57 57 56 56 55 55 56 56 56 56 56 56 56 55 54 53 52 52
52 52 52 52 51 51 51 51 50 50 50 50 50 50 50 51 51 51 51 52 52 52 53 53 53 53 53 52 52 52 52 52 52 53 53 53 53 54 54 55 55 55 55 55 55 55 55 54 55 55 56 56 56 56 56 55 55 55 55 55 55 55 55 55 54 53 52 52 52
53 52 52 51 51 50 50 50 49 49 49 49 49 49 50 50 50 50 50 51 51 51 51 52 52 51 51 51 50 50 50 50 51 51 51 51 51 52 52 53 53 53 53 54 54 54 54 53 53 54 55 55 55 56 56 55 55 54 54 54 54 54 54 53 53 52 52 52 51
52 51 50 50 49 49 49 48 48 48 48 48 49 49 49 49 49 49 50 50 50 50 50 50 50 49 49 49 49 49 48 48 49 49 49 49 49 49 50 50 51 51 52 52 52 52 52 52 52 53 54 54 54 55 56 56 55 54 53 53 53 53 52 52 52 51 51 51 50
50 49 49 48 48 47 47 47 47 47 47 47 48 48 48 48 48 48 49 49 49 49 49 48 48 48 48 48 48 48 47 47 47 47 47 47 47 47 48 48 48 49 49 50 50 50 50 50 51 52 52 53 54 55 55 55 54 53 52 51 51 51 50 50 50 49 49 49 49
48 47 47 46 46 46 46 46 46 46 46 47 47 47 47 47 47 47 48 48 48 48 47 47 47 47 46 47 47 47 46 46 46 46 46 46 46 46 46 46 46 47 47 48 48 48 48 48 49 50 51 52 53 54 54 54 53 52 51 50 49 49 48 48 48 48 48 48 47
46 45 45 45 45 45 45 45 45 45 46 46 46 46 46 46 46 47 47 47 47 47 46 46 46 46 46 46 46 46 46 46 45 45 45 45 45 45 45 45 45 45 46 46 46 45 45 46 47 48 49 50 51 52 53 53 52 51 49 49 47 46 45 45 46 46 46 46 45
45 44 44 44 44 44 44 45 45 45 45 45 46 46 45 46 46 46 46 46 46 46 46 45 45 45 45 45 45 45 45 45 45 45 45 45 45 45 44 44 44 44 44 44 44 43 43 43 44 46 47 48 49 50 51 51 50 49 48 47 45 44 43 44 45 45 45 43 42
44 44 44 43 44 44 44 44 44 45 45 45 45 45 45 45 45 45 46 46 46 45 45 45 45 44 45 45 45 45 45 45 45 45 45 44 44 44 44 43 43 43 43 42 43 42 42 42 42 43 44 45 46 47 48 48 47 46 46 45 44 43 43 44 44 43 43 41 40
44 44 44 44 44 44 44 45 45 45 46 46 46 45 45 45 45 45 45 45 45 45 44 44 44 44 44 44 44 44 44 44 44 44 44 44 43 43 43 43 42 42 41 41 41 41 41 41 41 42 42 43 44 44 45 44 43 43 42 42 43 43 43 43 42 41 40 39 38
44 44 45 45 45 45 46 46 46 46 46 46 46 46 46 46 45 45 45 45 44 44 43 43 43 43 43 43 43 43 43 43 43 43 43 43 43 43 42 42 41 41 40 40 40 40 40 40 40 41 41 41 41 42 42 42 41 40 39 40 42 43 43 42 41 40 38 37 37
45 46 46 46 46 47 47 47 47 47 47 47 47 46 46 46 46 45 45 44 44 43 42 42 42 42 42 42 42 42 42 42 41 41 41 41 42 42 41 41 40 39 39 39 39 39 39 40 40 40 39 39 39 40 41 40 39 38 37 38 40 42 42 41 40 39 38 37 36
46 47 47 47 47 47 47 47 47 47 46 46 46 46 46 46 45 45 44 43 43 42 41 41 41 41 41 41 41 41 41 41 40 40 40 41 41 40 40 39 38 38 37 38 38 39 39 39 39 38 38 38 38 39 40 40 38 37 36 37 39 40 40 39 39 38 38 37 36
47 47 47 47 47 47 46 46 45 45 45 45 45 45 45 45 45 44 44 43 42 41 41 40 40 40 40 40 40 40 40 40 39 39 40 40 40 39 38 37 36 36 36 37 38 38 39 38 37 37 37 37 38 39 40 39 37 36 36 37 38 38 38 38 38 38 37 37 36
46 46 46 46 45 45 45 44 44 44 44 44 44 44 45 44 44 43 43 42 41 40 40 39 39 40 39 39 39 39 39 39 39 39 39 38 37 36 35 35 35 36 36 37 37 38 37 37 36 36 36 37 38 39 38 37 36 35 36 37 37 37 37 37 38 38 37 36 35
45 45 45 44 44 43 43 42 42 42 43 43 44 44 44 44 43 42 41 40 39 39 39 38 38 38 38 38 38 38 38 38 38 38 37 36 35 34 34 34 35 35 36 36 36 36 36 35 35 36 36 37 37 37 36 35 35 35 36 36 36 36 36 37 37 37 36 35 35
44 44 43 42 42 42 41 41 41 42 42 43 43 43 43 42 41 40 39 38 38 37 37 37 37 37 37 37 36 36 36 36 36 36 35 34 33 32 33 33 34 34 34 34 34 34 34 35 35 36 36 36 35 34 34 34 34 35 35 34 34 35 35 36 35 35 35 34 34
42 42 42 41 41 41 41 41 41 42 42 43 43 42 41 40 39 38 37 37 36 36 36 35 35 35 35 35 35 35 35 35 34 33 32 31 31 31 31 31 30 30 30 31 32 32 33 34 35 36 35 34 33 33 33 33 33 33 33 33 33 34 34 34 34 34 34 33 33
41 41 40 40 40 40 41 41 41 42 42 42 41 40 39 38 37 36 35 35 34 34 34 34 33 33 33 33 33 33 33 33 32 30 29 29 28 28 28 26 25 25 26 27 29 30 32 34 35 34 33 33 33 33 33 33 32 32 32 32 32 32 33 33 33 33 33 32 32
40 39 39 39 40 40 41 41 41 41 41 40 39 38 36 35 34 34 33 33 33 33 33 32 32 31 31 31 31 31 31 30 28 27 26 26 25 24 22 21 21 22 23 24 27 29 31 33 34 34 33 33 34 34 33 33 32 31 31 31 31 32 32 32 32 32 32 32 32
39 39 39 39 40 40 40 41 40 40 39 38 37 35 34 33 32 32 32 31 31 32 31 31 30 30 29 29 29 29 28 26 25 24 24 23 21 19 18 18 19 20 21 23 25 28 31 32 33 34 34 34 34 34 34 33 32 31 31 31 31 32 32 32 32 32 32 32 32
38 38 38 39 39 40 40 40 39 38 37 35 34 32 31 30 30 30 30 30 30 30 30 29 28 28 28 28 28 27 25 23 22 21 20 18 16 16 17 17 17 19 21 23 25 28 30 32 33 33 33 33 33 34 34 34 33 32 32 32 32 32 32 32 32 32 33 33 33
38 38 38 38 39 39 39 38 37 36 34 32 31 30 29 29 29 29 29 29 29 28 28 27 27 27 27 27 26 25 23 21 20 18 16 15 15 16 15 15 16 18 20 22 25 27 30 32 32 32 32 31 31 32 32 32 32 32 33 33 33 33 32 32 32 33 33 34 34
37 37 37 38 38 37 37 36 35 33 31 30 29 29 28 28 28 28 28 27 27 27 26 26 26 26 26 25 24 22 21 19 17 15 13 14 15 14 14 14 15 17 19 22 24 27 30 31 31 31 30 30 30 30 30 30 31 31 32 32 33 33 32 32 32 33 33 34 34
36 36 36 36 36 36 35 34 32 31 29 28 28 28 27 27 27 27 26 26 25 25 24 24 25 25 24 23 22 20 19 17 14 12 13 14 14 13 13 14 15 17 19 22 25 28 30 31 31 31 31 30 30 30 30 30 30 31 31 32 32 32 32 32 32 33 33 33 33
Wind_Direction
284 283 283 282 282 281 281 280 279 278 278 278 277 277 277 276 276 276 276 276 275 275 275 274 273 272 272 272 271 271 271 270 269 269 268 268 268 267 266 265 265 265 264 264 264 263 263 262 262 261 260 259 258 257 256 254 253 251 250 249 248 248 248 248 249 249 248 248 247
284 283 283 283 282 282 281 281 280 279 279 278 278 278 278 277 277 276 276 276 276 275 275 275 274 273 273 272 272 271 271 271 270 270 269 269 268 267 266 265 265 264 264 264 263 263 262 262 261 261 260 259 259 257 256 254 253 252 251 250 248 248 247 247 248 249 248 248 247
284 284 283 283 283 283 282 282 281 280 280 279 279 278 278 278 278 277 277 276 276 276 275 275 275 274 274 273 273 272 272 271 271 271 270 270 269 268 267 266 265 264 263 263 263 262 262 261 261 261 260 260 259 258 256 254 253 253 252 251 250 248 247 247 247 248 248 248 247
285 285 284 284 284 283 283 282 282 281 280 280 279 279 279 278 278 278 278 277 277 276 276 276 275 275 275 274 274 273 273 272 271 271 271 270 270 269 268 267 266 264 263 262 262 262 262 261 260 260 260 259 259 258 256 255 253 253 253 253 251 249 248 247 247 247 247 247 246
286 286 285 285 285 284 283 283 282 281 280 280 280 279 279 279 278 278 278 278 278 277 277 277 276 276 275 275 275 274 274 273 272 272 271 271 270 270 269 268 267 265 263 262 262 262 261 261 260 259 259 259 259 258 257 255 254 253 253 253 252 251 249 248 247 247 247 246 245
287 287 286 286 286 285 284 283 282 281 281 280 280 279 279 279 279 279 279 279 279 278 278 278 277 277 276 276 275 275 274 274 273 272 271 271 271 270 270 269 268 266 264 262 261 261 261 260 260 259 259 258 258 258 257 256 255 253 252 251 251 251 250 248 247 247 246 245 244
288 288 287 287 286 286 285 284 283 282 281 280 280 279 279 279 279 279 279 279 279 279 279 278 278 278 277 277 276 275 275 274 273 272 271 271 271 270 270 269 268 267 265 264 262 261 260 260 260 259 259 258 258 258 257 256 255 254 252 251 250 250 249 248 247 246 245 244 243
289 289 288 288 287 286 285 284 283 282 282 281 280 279 279 279 279 279 279 279 279 279 279 278 278 278 278 278 277 276 275 274 274 273 272 271 271 270 270 269 269 267 266 264 263 262 260 260 259 259 259 258 258 258 257 256 255 254 252 250 249 249 248 247 246 246 245 244 243
290 290 289 288 287 286 285 285 284 283 282 281 281 280 280 279 279 279 279 279 279 279 279 279 279 279 279 278 278 277 276 275 274 273 272 271 271 270 270 269 268 267 266 265 264 262 261 260 259 259 258 258 258 257 257 256 255 253 252 250 249 248 247 247 246 245 244 243 242
291 290 289 289 287 286 286 285 284 283 283 282 281 281 280 280 280 279 279 279 279 279 279 279 279 279 279 279 278 278 277 276 275 274 273 272 271 270 269 268 267 267 266 265 264 263 261 260 259 259 258 258 257 257 256 256 254 253 251 250 248 247 246 245 245 244 243 242 242
291 290 289 289 288 287 286 285 284 284 283 283 282 281 281 280 280 280 280 280 280 280 280 280 280 280 280 280 279 279 278 277 276 276 275 273 272 271 269 268 267 266 265 265 264 263 261 260 259 258 257 257 256 256 256 255 254 253 251 249 248 246 245 244 243 243 242 242 241
291 290 290 289 288 287 287 286 285 285 284 284 283 283 282 281 281 281 281 281 281 281 281 281 281 281 281 280 280 280 279 278 277 277 276 275 273 272 270 268 266 265 264 264 263 262 261 260 259 258 257 256 255 255 255 255 254 252 250 248 246 245 244 243 242 242 241 241 240
291 291 290 289 289 288 288 287 286 286 285 285 284 284 283 282 282 282 282 282 282 281 281 282 282 282 281 281 281 281 280 279 278 277 276 275 274 273 271 269 267 265 264 263 262 261 260 259 258 257 256 255 254 254 254 253 253 251 249 247 245 244 243 242 241 240 240 240 239
291 291 290 290 289 289 288 288 287 287 287 286 286 285 284 284 283 282 282 282 282 282 282 282 282 282 282 282 282 282 281 280 279 278 277 275 274 273 272 270 268 266 264 263 262 260 259 259 258 257 256 254 253 252 252 252 251 250 248 246 244 243 242 241 240 239 239 238 238
291 291 290 290 290 289 289 289 288 288 287 287 286 286 285 285 284 283 283 282 282 282 283 283 283 283 282 282 282 282 282 281 280 279 277 276 274 273 272 270 269 267 265 263 261 260 259 258 257 256 255 253 252 251 251 251 249 248 246 244 243 241 241 240 239 238 237 237 237
292 291 291 291 290 290 290 289 289 288 288 288 287 287 286 285 285 284 283 283 283 283 283 283 283 283 283 283 283 283 282 282 281 280 278 276 275 273 272 270 269 267 265 263 261 259 258 257 256 255 254 252 251 250 250 250 248 246 244 243 241 240 239 239 238 237 236 236 236
292 292 291 291 291 290 290 290 289 289 288 288 288 287 287 286 285 284 284 283 283 283 283 283 283 283 283 283 283 283 283 282 281 280 279 277 275 274 272 270 268 266 264 262 260 258 257 256 255 254 252 251 250 249 249 249 247 245 243 241 240 239 238 238 237 235 235 235 235
293 293 292 291 291 291 290 290 290 289 289 289 288 288 287 286 286 285 284 283 283 283 283 283 283 283 283 283 283 282 282 281 281 280 279 277 276 274 272 270 268 266 264 262 259 257 255 254 253 252 251 249 248 248 248 248 247 245 242 241 239 238 237 236 235 234 234 234 234
294 293 292 292 291 291 291 290 290 290 289 289 288 288 287 286 286 285 284 284 284 283 283 283 283 283 283 282 282 282 281 281 280 279 278 277 276 274 272 269 267 265 263 261 259 256 254 253 252 250 249 247 246 246 246 246 245 243 241 240 238 237 236 235 234 233 233 233 234
294 293 293 292 292 291 291 291 290 290 290 289 288 288 287 287 286 285 285 284 284 284 283 283 283 282 282 282 281 281 280 280 279 278 277 276 275 274 272 270 267 265 263 260 258 255 253 251 250 248 246 245 244 244 244 244 243 242 240 238 237 236 235 234 233 232 232 233 233
294 293 293 292 292 292 291 291 291 290 290 289 288 288 287 287 286 286 285 285 284 284 283 283 282 281 281 281 280 280 280 279 278 277 276 275 274 273 272 270 267 264 262 260 257 255 253 250 248 246 245 243 242 242 242 242 241 240 238 236 235 234 233 232 231 231 231 231 231
294 294 293 293 292 292 291 291 291 290 289 289 288 288 287 287 286 286 285 285 284 284 283 282 282 281 280 280 280 279 279 279 278 277 276 275 274 273 271 269 267 264 261 259 257 254 252 249 247 245 243 242 241 240 240 240 239 237 235 234 233 232 231 231 230 229 229 229 229
294 294 293 293 292 292 291 291 290 290 289 289 288 288 287 287 286 285 285 284 284 283 283 282 281 281 280 280 280 279 279 278 278 277 276 275 273 272 270 269 266 263 260 257 255 253 250 248 246 244 243 241 240 238 237 237 236 235 233 231 230 230 229 228 227 227 227 226 226
295 294 293 293 292 292 291 291 290 290 289 288 288 287 287 286 286 285 285 284 284 283 283 282 281 281 281 280 280 279 279 278 278 277 276 275 273 272 270 268 265 262 258 255 253 251 248 246 245 244 242 241 238 236 235 234 233 232 231 229 228 227 226 226 225 225 224 224 224
295 294 293 292 292 291 291 290 290 289 288 288 287 287 287 286 286 285 285 284 284 283 283 282 282 281 281 281 280 280 279 278 278 277 276 275 273 271 269 267 264 260 256 253 250 248 246 244 244 244 242 240 237 235 233 231 230 229 228 227 226 224 223 223 223 223 223 222 222
294 294 293 292 292 291 291 290 289 289 288 288 287 287 286 286 286 285 285 285 284 284 284 283 282 282 281 281 281 280 279 279 278 277 276 275 273 271 269 266 262 259 255 251 248 246 244 243 243 243 242 240 236 232 229 227 225 224 224 224 223 222 222 222 222 222 221 221 220
294 294 293 292 292 291 291 290 289 289 288 288 287 287 286 286 286 285 285 285 285 284 284 283 283 282 282 281 281 280 280 279 278 277 276 275 273 271 269 265 261 257 253 249 246 243 242 242 242 242 241 237 233 228 224 221 220 219 219 220 221 221 221 221 220 220 219 219 218
295 294 293 293 292 292 291 291 290 289 289 288 288 287 287 286 286 285 285 285 285 285 284 284 283 283 282 282 281 281 280 279 278 277 275 274 272 270 267 263 259 255 251 247 244 242 241 242 242 241 238 233 228 223 219 216 215 216 217 218 219 220 220 219 219 218 217 216 216
295 295 294 294 293 293 292 291 291 290 289 289 288 287 287 286 286 285 285 285 285 285 284 284 284 283 283 282 282 282 281 279 278 277 276 274 272 269 266 261 256 252 248 245 242 242 242 242 241 238 233 227 222 217 213 212 213 216 217 218 218 219 218 217 217 216 215 214 213
296 296 295 295 294 294 293 292 291 290 290 289 289 288 287 286 286 285 285 285 285 284 284 284 284 283 283 283 283 283 282 280 279 277 276 275 272 268 263 258 253 250 247 245 243 243 242 241 238 232 226 220 214 210 209 211 214 216 216 216 216 215 214 214 213 213 212 212 211
297 297 296 295 295 294 293 292 292 291 290 290 289 289 288 287 286 285 285 284 284 284 284 284 284 284 284 284 284 283 282 281 280 278 277 275 271 266 261 256 252 250 248 246 244 242 240 236 231 225 218 211 207 206 208 211 214 215 215 214 213 211 211 210 210 210 210 209 209
298 297 297 296 295 294 294 293 292 292 291 290 290 289 288 287 286 285 284 284 283 283 284 284 284 285 285 285 285 284 282 281 280 279 277 274 269 264 259 255 253 251 249 245 241 238 234 229 223 216 210 205 204 205 208 211 213 213 213 212 210 208 207 208 208 208 208 207 207
298 298 297 296 295 295 294 294 293 292 291 291 290 289 289 287 286 285 284 283 283 283 284 284 285 286 286 286 285 284 283 282 281 279 276 272 267 262 259 256 253 249 244 239 235 230 225 220 214 208 204 203 204 205 207 209 211 211 210 208 206 205 205 205 205 206 206 205 205
299 298 297 296 296 295 295 294 294 293 292 291 291 290 288 287 286 284 283 283 283 283 284 285 286 286 286 286 285 284 283 283 281 278 274 269 264 261 258 255 250 243 236 230 226 221 216 211 206 203 202 203 204 204 205 206 207 207 205 203 203 202 202 202 203 202 202 202 201
300 299 298 297 296 296 296 295 295 294 293 292 291 290 288 287 285 284 283 283 283 284 285 286 286 287 286 286 285 285 284 283 280 276 271 266 263 260 255 247 239 231 225 221 217 212 207 204 202 201 201 202 201 201 202 203 203 202 201 200 199 199 199 199 198 198 197 197 196
301 300 299 298 297 297 296 296 295 295 294 292 291 290 288 286 285 284 283 284 284 285 286 286 287 287 286 286 286 285 284 282 278 274 270 267 263 256 244 232 223 218 215 212 208 205 202 200 200 199 199 198 198 198 199 199 199 198 197 196 196 195 194 193 193 192 192 192 192
302 301 300 299 298 298 297 297 296 295 294 293 291 289 288 286 285 284 284 285 285 286 286 287 287 287 287 286 286 285 283 280 276 273 271 267 257 241 225 215 212 209 207 205 203 201 199 198 197 196 195 195 195 195 196 196 196 195 194 193 192 190 189 189 188 188 189 189 189
303 302 301 300 299 298 298 297 296 295 294 293 291 289 288 286 285 285 285 285 286 286 287 287 287 287 287 287 287 285 281 278 275 273 269 259 239 220 209 207 207 206 203 201 199 198 197 195 194 193 193 193 193 193 193 193 193 192 191 190 189 188 188 188 188 188 188 188 187
304 303 302 301 300 299 298 298 297 296 294 293 291 290 288 287 286 286 286 286 287 287 287 287 287 288 288 287 286 283 279 276 275 271 259 238 217 207 205 205 205 204 201 198 197 196 195 193 192 191 191 192 192 192 192 191 190 189 189 189 189 188 188 187 187 187 186 185 184
305 304 302 301 300 300 299 298 297 296 295 293 291 290 289 288 287 287 287 287 287 287 287 287 288 288 288 287 284 280 277 275 272 260 238 214 204 203 206 206 204 202 200 197 196 194 193 191 190 189 189 190 190 189 188 187 186 186 186 187 187 186 186 185 184 184 183 183 182
306 304 303 302 301 301 300 299 297 296 295 293 292 291 289 288 287 287 287 287 287 287 287 287 288 289 288 286 282 278 275 270 259 237 213 200 200 205 209 208 205 202 200 197 195 193 190 188 187 186 186 187 186 185 184 183 182 182 183 183 183 183 182 181 181 181 181 181 181